Location: Selby
(38.0566°N, 122.2439°W)
Time: 11:53:34
(UTC+00:00)

Daily predictions for brighter satellites

Satellite Brightness Start Highest point End
(mag) Time Altitude Azimuth Time Altitude Azimuth Time Altitude Azimuth
Sich 1 Rocket 4.4 12:00:40 10° NNW 12:04:40 33° W 12:08:38 10° SSW
Atlas Centaur 2 3.5 12:07:42 10° S 12:08:29 11° SSE 12:09:17 10° SSE
Cosmos 304 Rocket 3.8 12:05:33 10° SSW 12:10:18 84° ESE 12:15:05 10° NNE
Cosmos 1025 Rocket 3.3 12:07:49 10° SSW 12:12:05 53° W 12:16:23 10° N
SL-16 R/B 4.0 12:11:55 10° W 12:12:56 10° W 12:13:56 10° WSW
Cosmos 1455 Rocket 3.4 12:09:28 10° N 12:13:50 73° E 12:18:12 10° SSE
Cosmos 2322 3.8 12:09:07 10° NNW 12:14:50 90° NNE 12:20:30 10° SSE
IRS-1D 3.7 12:09:38 10° N 12:14:56 67° WNW 12:20:08 10° SSW
Envisat 3.9 12:14:29 10° N 12:19:00 33° WNW 12:23:29 10° SW
Okean 2 Rocket 4.4 12:17:41 10° NW 12:21:00 21° W 12:24:19 10° SW
ALOS 4.3 12:20:06 10° NW 12:22:07 13° WNW 12:24:08 10° W
DMSP B5D2-2 4.1 12:18:57 10° S 12:24:07 64° W 12:29:21 10° NNW
CZ-2C R/B 3.0 12:21:47 10° N 12:26:10 38° WNW 12:30:25 10° SW
